Temp
-4 -4 -4 -4 -4 -4 -4 -4 -4 -4 -5 -5 -5 -5 -5 -5 -5 -5 -5 -5 -5 -6 -6 -6 -6 -6 -6 -6 -6 -6 -6 -7 -7 -7 -6 -6 -6 -6 -7 -7 -7 -7
-4 -4 -4 -4 -4 -4 -4 -4 -4 -4 -4 -5 -5 -5 -5 -5 -5 -5 -5 -5 -5 -6 -6 -6 -6 -6 -6 -6 -6 -7 -7 -7 -7 -7 -7 -6 -6 -6 -7 -7 -7 -7
-4 -4 -4 -4 -4 -4 -4 -4 -4 -4 -4 -4 -4 -5 -5 -5 -5 -5 -5 -5 -5 -5 -6 -6 -6 -6 -6 -6 -6 -6 -6 -7 -7 -7 -7 -7 -7 -7 -7 -7 -7 -7
-4 -4 -4 -3 -4 -4 -4 -4 -4 -4 -4 -4 -4 -4 -4 -4 -5 -5 -5 -5 -5 -5 -5 -6 -6 -6 -6 -6 -6 -6 -6 -6 -7 -7 -7 -7 -7 -7 -7 -7 -7 -7
-4 -4 -3 -3 -3 -4 -4 -4 -4 -4 -4 -4 -4 -4 -4 -4 -4 -5 -5 -5 -5 -5 -5 -5 -5 -6 -6 -6 -6 -6 -6 -6 -7 -7 -7 -7 -7 -7 -7 -7 -7 -7
-4 -3 -3 -3 -3 -4 -4 -4 -4 -4 -4 -4 -4 -4 -4 -5 -5 -5 -5 -5 -5 -5 -5 -5 -5 -5 -6 -6 -6 -6 -6 -6 -6 -7 -7 -7 -7 -7 -7 -7 -7 -7
-4 -4 -4 -4 -4 -4 -4 -4 -4 -4 -4 -4 -4 -4 -4 -4 -4 -5 -5 -5 -5 -5 -5 -5 -5 -5 -5 -6 -6 -6 -6 -6 -6 -7 -7 -7 -7 -7 -7 -8 -8 -8
-4 -4 -4 -4 -4 -4 -4 -4 -4 -4 -4 -4 -4 -4 -4 -4 -4 -4 -4 -5 -5 -5 -5 -5 -5 -5 -5 -5 -6 -6 -6 -6 -6 -7 -7 -7 -7 -7 -7 -8 -8 -8
-4 -4 -4 -4 -4 -4 -4 -4 -4 -3 -3 -4 -4 -4 -4 -4 -4 -4 -4 -4 -5 -5 -5 -5 -5 -5 -5 -5 -5 -6 -6 -6 -6 -6 -7 -7 -7 -7 -7 -8 -8 -8
-4 -4 -4 -4 -4 -4 -4 -4 -4 -3 -3 -4 -4 -4 -4 -4 -4 -4 -4 -5 -5 -5 -5 -5 -5 -5 -5 -5 -5 -5 -6 -6 -6 -6 -7 -7 -7 -7 -7 -8 -8 -8
-4 -4 -4 -4 -4 -4 -4 -4 -4 -4 -4 -4 -4 -4 -4 -4 -4 -5 -5 -5 -5 -5 -5 -5 -5 -5 -5 -6 -6 -6 -6 -6 -6 -6 -7 -7 -7 -7 -7 -8 -8 -8
-4 -4 -4 -4 -4 -4 -4 -4 -4 -4 -4 -4 -4 -4 -4 -4 -4 -5 -5 -5 -5 -5 -5 -5 -5 -6 -6 -6 -6 -6 -6 -6 -6 -6 -7 -7 -7 -7 -7 -8 -8 -8
-4 -4 -4 -4 -4 -4 -4 -4 -4 -4 -4 -4 -4 -4 -4 -4 -5 -5 -5 -5 -5 -5 -5 -5 -5 -6 -6 -6 -6 -6 -6 -6 -7 -7 -7 -7 -7 -7 -8 -8 -8 -8
-4 -4 -4 -4 -4 -4 -4 -4 -4 -4 -4 -4 -4 -4 -5 -5 -5 -5 -5 -5 -5 -5 -5 -5 -5 -5 -6 -6 -6 -6 -6 -6 -6 -7 -7 -7 -7 -7 -8 -8 -8 -8
-5 -5 -4 -4 -4 -4 -4 -4 -4 -4 -4 -4 -4 -5 -5 -5 -5 -5 -5 -5 -5 -5 -5 -5 -5 -5 -5 -5 -5 -5 -5 -6 -6 -6 -7 -7 -7 -7 -8 -8 -8 -8
-5 -5 -5 -5 -5 -4 -4 -4 -4 -4 -4 -4 -4 -5 -5 -5 -5 -5 -5 -5 -5 -5 -5 -5 -5 -5 -5 -5 -5 -5 -5 -5 -5 -6 -6 -7 -7 -7 -7 -8 -8 -8
-5 -5 -5 -5 -5 -5 -5 -5 -4 -4 -4 -4 -5 -5 -5 -5 -5 -5 -5 -5 -5 -5 -5 -5 -5 -5 -5 -5 -5 -5 -5 -5 -5 -5 -6 -6 -7 -7 -7 -7 -7 -7
-6 -6 -6 -6 -5 -5 -5 -5 -5 -5 -5 -5 -5 -5 -5 -5 -5 -5 -5 -5 -5 -5 -5 -5 -5 -5 -5 -5 -5 -5 -5 -5 -5 -5 -6 -6 -6 -7 -7 -7 -7 -7
-6 -6 -6 -6 -6 -6 -6 -5 -5 -5 -5 -5 -5 -5 -5 -5 -5 -5 -5 -5 -6 -6 -5 -5 -5 -5 -5 -5 -5 -5 -5 -5 -5 -5 -6 -6 -6 -7 -7 -7 -7 -7
-6 -6 -6 -6 -6 -6 -6 -6 -5 -5 -5 -5 -5 -5 -5 -5 -5 -5 -5 -5 -6 -6 -6 -6 -5 -5 -5 -5 -5 -5 -5 -5 -5 -5 -6 -6 -6 -6 -6 -7 -7 -7
-6 -6 -6 -6 -6 -6 -6 -6 -6 -6 -6 -6 -5 -5 -5 -5 -5 -5 -6 -6 -6 -6 -6 -6 -6 -5 -5 -6 -6 -5 -5 -5 -6 -6 -6 -6 -6 -6 -6 -7 -7 -7
-6 -6 -6 -6 -6 -6 -6 -6 -6 -6 -6 -6 -6 -6 -5 -5 -6 -6 -6 -6 -6 -6 -6 -6 -6 -6 -6 -6 -6 -6 -6 -6 -6 -6 -6 -6 -7 -7 -7 -7 -7 -7
-7 -7 -7 -7 -7 -6 -6 -6 -6 -6 -6 -6 -6 -6 -6 -6 -6 -6 -6 -6 -6 -6 -6 -6 -6 -6 -6 -6 -6 -6 -6 -6 -6 -6 -7 -7 -7 -7 -7 -7 -7 -7
-7 -7 -7 -7 -7 -7 -7 -7 -6 -6 -6 -6 -6 -6 -6 -6 -6 -6 -6 -6 -6 -6 -6 -6 -6 -6 -6 -6 -6 -7 -7 -7 -7 -7 -7 -7 -7 -7 -7 -7 -7 -7
-7 -7 -7 -7 -7 -7 -7 -7 -7 -7 -7 -6 -6 -6 -6 -6 -6 -6 -6 -6 -6 -6 -6 -6 -7 -6 -6 -7 -7 -7 -7 -7 -7 -7 -7 -7 -7 -7 -7 -7 -7 -8
-7 -7 -7 -7 -7 -7 -7 -7 -7 -7 -7 -7 -7 -6 -6 -6 -6 -6 -6 -6 -6 -7 -7 -7 -7 -7 -7 -7 -7 -7 -7 -7 -7 -7 -7 -7 -7 -8 -8 -8 -8 -8
Height
5934 5936 5938 5940 5941 5942 5943 5944 5946 5947 5948 5949 5950 5951 5951 5952 5953 5953 5953 5954 5955 5955 5955 5954 5954 5953 5953 5953 5953 5953 5952 5952 5952 5952 5952 5951 5951 5951 5951 5951 5951 5950
5932 5934 5937 5938 5940 5941 5942 5944 5945 5946 5947 5948 5949 5950 5951 5951 5952 5953 5953 5954 5954 5954 5954 5954 5954 5954 5953 5953 5953 5953 5952 5952 5952 5951 5951 5951 5951 5951 5950 5950 5950 5950
5931 5933 5935 5937 5938 5940 5941 5942 5944 5945 5946 5947 5948 5949 5950 5951 5952 5952 5953 5953 5954 5954 5954 5954 5954 5954 5953 5953 5953 5953 5953 5952 5952 5951 5950 5950 5950 5950 5950 5950 5950 5950
5929 5931 5933 5935 5937 5938 5940 5941 5942 5944 5945 5946 5947 5948 5949 5950 5951 5952 5952 5953 5953 5953 5954 5954 5954 5954 5953 5953 5953 5953 5953 5952 5951 5951 5950 5949 5949 5949 5949 5949 5949 5949
5928 5929 5931 5933 5935 5937 5938 5940 5941 5942 5943 5945 5946 5947 5948 5949 5949 5950 5951 5951 5952 5952 5953 5953 5953 5953 5953 5952 5952 5952 5952 5952 5951 5951 5950 5949 5949 5948 5948 5948 5948 5948
5927 5928 5930 5931 5933 5935 5936 5938 5939 5941 5942 5943 5945 5946 5947 5948 5948 5949 5949 5950 5950 5951 5951 5952 5952 5953 5953 5952 5951 5951 5951 5951 5951 5950 5950 5949 5949 5948 5948 5947 5947 5947
5927 5928 5929 5930 5932 5933 5934 5936 5937 5939 5940 5942 5943 5944 5945 5946 5947 5947 5948 5948 5949 5949 5950 5950 5951 5951 5951 5951 5951 5950 5950 5950 5950 5949 5949 5949 5949 5948 5948 5947 5947 5946
5925 5926 5927 5929 5930 5931 5932 5934 5936 5937 5939 5940 5942 5943 5944 5945 5945 5946 5947 5947 5948 5948 5948 5948 5949 5949 5950 5950 5950 5950 5949 5949 5948 5948 5948 5948 5948 5948 5948 5947 5946 5946
5924 5925 5926 5928 5929 5930 5931 5933 5934 5936 5937 5939 5940 5941 5943 5943 5944 5945 5945 5946 5946 5947 5947 5947 5947 5947 5947 5948 5948 5948 5949 5948 5948 5947 5947 5947 5947 5947 5947 5947 5946 5945
5923 5924 5926 5927 5928 5929 5930 5931 5933 5934 5936 5937 5939 5940 5941 5942 5943 5943 5944 5944 5945 5945 5945 5945 5945 5946 5946 5946 5946 5947 5947 5947 5947 5947 5946 5946 5946 5946 5946 5946 5946 5945
5921 5923 5924 5925 5926 5927 5929 5930 5931 5933 5934 5935 5937 5938 5939 5940 5941 5941 5942 5942 5943 5943 5943 5944 5944 5944 5944 5944 5945 5945 5946 5946 5946 5946 5945 5945 5945 5944 5945 5945 5945 5944
5920 5921 5922 5923 5924 5926 5927 5928 5930 5931 5932 5934 5935 5936 5937 5938 5939 5940 5940 5940 5941 5941 5942 5942 5942 5943 5942 5942 5943 5943 5943 5944 5944 5944 5944 5944 5944 5943 5944 5944 5944 5943
5918 5919 5920 5921 5922 5924 5925 5927 5928 5929 5930 5932 5933 5934 5935 5936 5937 5938 5938 5938 5939 5939 5940 5940 5941 5941 5941 5940 5940 5941 5941 5941 5942 5942 5942 5942 5942 5942 5943 5943 5942 5942
5916 5917 5918 5919 5921 5922 5924 5925 5926 5927 5928 5930 5931 5932 5933 5934 5935 5935 5936 5937 5937 5938 5938 5939 5939 5939 5938 5938 5938 5939 5939 5939 5940 5940 5940 5941 5941 5941 5941 5941 5941 5941
5914 5915 5917 5918 5919 5921 5922 5923 5924 5925 5926 5927 5929 5930 5931 5931 5932 5933 5934 5935 5935 5936 5936 5937 5937 5937 5936 5936 5937 5937 5937 5937 5938 5938 5939 5939 5939 5940 5940 5940 5940 5939
5913 5914 5915 5916 5917 5918 5920 5921 5922 5923 5924 5925 5926 5927 5928 5929 5930 5931 5932 5932 5933 5933 5934 5934 5935 5935 5934 5935 5935 5935 5935 5935 5936 5936 5937 5937 5938 5938 5938 5938 5938 5938
5911 5912 5913 5914 5915 5916 5917 5918 5919 5920 5921 5922 5923 5925 5926 5927 5928 5928 5929 5930 5930 5931 5931 5932 5932 5932 5932 5933 5933 5933 5933 5934 5934 5934 5935 5935 5935 5936 5936 5937 5937 5937
5909 5910 5912 5912 5913 5914 5915 5916 5917 5918 5919 5920 5921 5922 5923 5924 5925 5926 5927 5928 5928 5929 5929 5929 5930 5930 5931 5931 5931 5932 5932 5932 5932 5932 5932 5933 5933 5934 5934 5935 5935 5935
5907 5909 5910 5910 5911 5912 5912 5913 5915 5916 5917 5918 5919 5920 5921 5922 5923 5924 5924 5925 5926 5927 5927 5927 5928 5928 5929 5929 5929 5930 5930 5930 5930 5930 5931 5931 5931 5932 5933 5933 5933 5934
5905 5907 5908 5908 5909 5910 5910 5911 5913 5913 5914 5915 5916 5917 5919 5920 5920 5921 5922 5923 5924 5925 5925 5925 5926 5926 5927 5927 5928 5928 5928 5929 5929 5929 5929 5929 5929 5930 5931 5931 5932 5932
5903 5904 5905 5906 5907 5908 5909 5910 5911 5911 5912 5913 5914 5915 5916 5917 5918 5918 5919 5920 5921 5922 5922 5923 5923 5924 5925 5925 5925 5926 5926 5927 5927 5927 5927 5927 5928 5929 5929 5930 5930 5930
5901 5902 5903 5904 5905 5906 5907 5908 5908 5909 5910 5910 5911 5912 5913 5914 5915 5916 5917 5918 5918 5919 5920 5920 5921 5922 5922 5923 5923 5923 5924 5925 5925 5925 5925 5926 5926 5927 5927 5928 5928 5928
5898 5899 5900 5901 5902 5903 5904 5905 5906 5906 5907 5908 5909 5910 5910 5911 5912 5913 5913 5914 5915 5917 5918 5918 5918 5919 5919 5919 5920 5920 5922 5922 5923 5924 5924 5924 5925 5925 5926 5926 5926 5926
5895 5896 5897 5898 5899 5901 5902 5902 5903 5904 5904 5905 5905 5906 5907 5908 5909 5909 5910 5911 5913 5914 5915 5915 5915 5915 5916 5916 5916 5917 5919 5920 5920 5921 5922 5922 5923 5923 5924 5924 5924 5924
5892 5893 5894 5895 5897 5898 5899 5899 5900 5901 5901 5902 5902 5903 5904 5904 5905 5906 5907 5909 5910 5911 5912 5912 5912 5912 5912 5913 5913 5914 5916 5917 5917 5918 5920 5920 5920 5920 5921 5921 5920 5920
5889 5890 5892 5893 5894 5894 5895 5896 5897 5898 5899 5899 5900 5900 5901 5901 5902 5903 5904 5905 5907 5908 5909 5909 5909 5909 5909 5910 5910 5911 5912 5913 5914 5915 5916 5916 5916 5916 5916 5917 5916 5916
Wind_Speed
15 15 15 13 12 12 10 10 9 8 8 7 5 4 3 2 1 1 2 2 2 3 3 5 6 7 8 8 8 8 8 8 8 8 8 7 6 5 5 5 6 7
17 17 16 15 13 12 11 10 9 9 8 7 6 5 4 3 3 2 3 3 3 3 2 3 4 6 7 8 8 9 10 9 9 9 9 8 7 6 5 4 4 5
19 18 17 16 15 14 13 12 11 10 9 8 7 6 6 5 4 3 3 3 3 3 3 3 3 5 6 7 8 8 9 10 10 10 10 10 9 8 7 6 5 4
20 19 19 18 17 16 14 13 12 11 10 9 8 8 7 7 6 5 5 5 5 5 5 5 5 5 7 8 8 8 9 10 10 10 10 11 10 10 9 8 7 6
21 20 20 19 18 16 15 14 13 12 11 10 9 9 9 8 8 8 8 8 7 8 8 7 7 7 8 9 10 10 9 10 10 11 11 11 11 11 11 10 9 8
20 20 19 18 17 16 16 15 14 13 12 11 10 10 9 9 10 10 10 10 10 10 10 10 10 10 10 11 11 12 12 11 11 12 12 11 12 13 13 12 12 11
19 19 18 18 17 16 16 16 15 14 13 12 11 11 10 10 11 11 11 11 11 11 12 12 12 12 12 13 13 14 14 14 13 13 13 12 12 13 14 14 13 13
18 19 19 18 18 18 17 17 16 15 14 13 12 11 11 11 11 11 11 11 11 12 12 13 13 13 13 14 14 15 15 15 15 15 14 13 13 13 14 14 14 14
19 18 18 18 18 18 18 16 15 15 14 13 12 11 10 10 10 10 10 10 10 11 12 12 13 14 14 14 15 15 15 15 15 16 16 15 14 14 14 14 14 14
18 17 17 17 17 18 17 16 15 14 14 13 12 11 10 10 10 10 10 10 11 11 12 13 14 14 15 15 15 14 14 14 14 14 15 15 15 15 14 14 13 13
17 16 16 16 17 17 16 16 15 14 13 12 11 10 10 10 10 10 10 11 11 11 12 13 13 14 15 15 15 14 13 13 13 13 14 15 16 16 16 15 14 13
16 17 17 17 17 17 16 15 14 13 12 11 10 10 10 10 10 10 10 11 12 12 12 13 13 13 15 15 15 15 13 12 12 12 13 14 15 16 16 16 15 13
17 18 18 18 18 18 17 16 14 13 13 11 10 10 10 10 10 10 11 12 12 12 12 13 13 13 14 15 15 15 14 13 13 13 13 14 14 15 15 15 14 13
17 18 18 18 18 17 16 15 15 14 13 12 11 10 11 11 11 11 11 12 12 12 13 13 13 14 14 15 15 14 14 14 14 13 13 13 13 14 14 14 13 11
17 17 17 17 16 15 15 15 15 14 14 13 12 12 13 12 12 11 11 11 12 12 13 13 13 13 14 14 14 13 13 13 12 12 12 12 11 11 11 11 10 9
15 15 15 15 14 14 15 15 15 15 15 15 14 14 14 14 13 12 11 12 13 13 13 13 13 13 13 13 12 12 11 11 11 11 11 10 10 9 8 8 8 7
12 11 11 12 12 13 14 15 16 17 17 17 17 16 15 14 13 13 12 12 13 13 13 13 13 13 13 12 11 10 10 10 11 11 10 9 8 7 8 7 7 7
10 10 9 9 10 11 13 15 17 18 18 18 18 16 15 15 14 13 12 12 13 13 13 14 14 13 11 11 10 9 9 10 10 10 9 8 8 8 7 6 6 6
10 10 8 8 8 9 11 13 15 16 18 18 18 17 17 15 14 13 13 13 12 12 13 14 14 12 10 9 9 9 9 9 10 9 8 8 8 7 7 6 5 5
11 10 9 8 8 7 8 9 10 13 15 17 18 18 16 15 14 14 14 13 12 12 13 13 13 11 10 9 10 10 10 9 9 8 8 8 8 7 6 6 5 5
11 11 11 10 9 9 8 8 8 10 12 15 17 17 17 16 17 16 14 13 13 12 12 12 12 12 11 11 11 11 10 9 8 8 8 8 8 7 7 7 7 8
12 12 12 12 11 11 11 10 10 11 13 15 16 17 18 18 17 16 15 15 15 14 13 13 13 14 13 13 13 12 10 9 9 8 8 8 8 8 9 9 10 11
14 14 14 14 14 13 12 12 13 14 15 16 17 18 19 19 19 19 18 18 17 16 15 14 15 15 14 14 14 13 11 10 10 9 9 9 9 10 11 12 13 14
17 17 18 18 17 15 15 15 16 16 17 18 18 19 20 21 22 22 22 21 20 18 17 16 16 17 16 15 15 14 12 11 11 10 10 10 11 12 14 15 16 18
21 21 21 21 20 19 18 18 18 17 17 17 18 18 18 20 22 23 23 23 21 19 18 17 17 18 17 16 15 14 13 12 12 11 11 12 13 15 16 17 19 21
24 23 23 23 23 23 22 21 20 19 17 17 17 16 16 16 17 18 20 21 21 20 18 17 18 19 18 16 16 15 14 14 14 12 12 14 16 17 19 21 23 26
Wind_Direction
179 182 182 180 179 178 177 175 171 168 171 177 176 167 169 180 203 253 289 319 344 0 2 2 6 13 22 29 26 18 11 1 352 346 346 350 351 350 357 5 14 23
178 180 180 179 179 178 181 182 180 177 176 183 191 192 200 215 227 239 260 284 308 322 332 338 343 353 3 15 20 17 14 10 2 350 340 338 339 337 337 341 350 357
179 180 179 180 181 182 184 186 189 189 184 188 199 210 217 221 220 219 233 253 270 283 287 292 301 316 331 346 358 1 1 2 2 357 346 337 332 328 326 323 321 320
180 181 181 182 183 184 185 187 192 197 198 199 203 212 220 225 227 225 230 239 245 253 259 264 270 280 294 309 324 334 339 341 346 351 348 341 332 325 321 318 312 305
183 184 184 185 184 183 182 185 191 195 199 203 204 211 219 227 236 240 243 244 245 248 252 255 258 262 269 281 294 303 311 319 326 333 338 340 335 327 320 314 312 310
187 186 187 188 185 183 182 184 188 190 193 199 203 210 217 225 234 243 249 253 253 254 255 257 258 259 262 266 274 282 289 296 304 312 321 329 332 330 324 316 313 312
189 187 188 188 186 186 187 188 188 187 190 195 200 208 216 224 231 238 246 253 257 259 261 262 262 261 261 263 266 270 276 282 286 294 304 314 322 327 327 321 314 310
192 189 189 189 189 190 192 192 191 190 191 195 201 209 216 224 233 239 244 249 255 259 263 266 266 265 263 263 264 266 269 273 278 285 293 301 310 319 325 324 316 307
193 192 192 193 194 195 196 196 196 195 197 201 207 213 218 225 233 240 244 248 252 257 262 265 268 270 270 269 267 268 269 270 274 279 286 292 299 309 318 321 316 306
194 193 194 196 197 198 198 198 200 202 203 207 211 216 221 229 235 240 244 247 250 254 260 265 269 273 274 275 273 272 271 272 272 275 280 287 293 301 308 313 314 306
195 194 195 196 198 199 199 199 200 203 205 210 215 221 228 235 240 245 246 248 250 252 256 262 267 272 275 276 276 275 274 273 272 274 278 283 288 292 297 305 312 309
197 196 197 199 199 200 200 199 200 202 207 212 220 228 235 240 244 247 248 249 251 254 258 262 266 271 273 274 275 274 272 269 268 270 273 277 281 285 290 301 312 312
200 200 202 202 203 203 202 201 202 204 210 216 224 234 240 243 245 247 247 248 251 255 260 266 271 272 272 272 271 270 269 266 264 264 267 272 277 281 288 300 309 309
204 204 205 206 208 208 207 207 209 211 216 221 228 236 241 242 244 246 248 249 251 256 263 269 273 274 273 271 271 271 270 268 265 264 265 268 273 280 289 298 301 301
208 207 208 210 212 212 212 214 217 219 223 227 231 235 239 241 243 247 250 252 253 257 265 271 273 274 274 273 275 276 276 275 273 270 268 269 271 277 284 288 289 291
207 208 210 213 214 216 218 219 223 226 229 233 235 236 238 238 240 244 249 252 255 259 265 271 275 275 275 277 279 279 281 282 281 279 276 273 272 268 264 263 265 273
201 204 209 213 216 220 223 225 229 232 234 235 236 237 238 237 237 241 245 248 253 260 266 272 274 275 278 281 282 283 282 281 281 283 281 271 260 245 235 236 246 259
196 202 207 214 220 224 228 230 232 235 237 238 238 238 238 236 236 239 242 244 249 257 265 268 270 273 278 281 282 279 275 275 278 278 273 260 243 230 226 229 238 247
199 204 207 214 223 228 233 236 238 240 240 238 236 236 236 236 237 239 241 242 246 252 259 263 266 271 273 275 274 265 259 266 272 269 262 252 240 233 231 231 232 240
205 207 209 214 220 226 234 240 243 243 240 236 235 235 236 237 236 237 239 240 242 247 253 257 259 260 258 259 260 255 252 259 265 261 256 249 242 237 236 238 247 262
217 217 218 220 223 227 230 234 241 245 242 239 237 236 235 234 234 235 236 237 237 241 247 252 251 247 244 246 248 247 247 251 254 252 250 249 248 248 249 254 266 276
227 230 230 231 232 233 232 233 239 244 245 242 239 237 236 235 233 232 231 230 230 232 238 248 249 243 238 240 242 240 237 239 240 240 244 250 254 258 263 267 273 278
234 237 239 242 243 244 242 241 242 245 247 246 243 242 241 239 234 231 228 226 226 226 230 240 245 240 235 235 238 236 232 231 231 232 239 249 257 264 267 268 270 272
237 240 242 245 249 250 250 249 248 248 250 249 246 245 245 243 239 236 233 230 228 224 224 231 239 238 233 233 236 235 233 233 234 236 242 250 256 260 262 263 267 271
234 238 242 246 249 252 254 254 252 252 255 257 255 252 250 247 243 240 238 234 227 219 217 224 232 234 232 233 238 239 238 240 242 244 248 254 258 262 268 274 279 282
230 233 238 243 247 250 253 255 254 253 256 262 267 266 261 254 247 242 237 230 219 212 214 221 227 229 230 233 239 245 248 250 253 257 263 269 273 277 281 284 285 286